Regional Weather Roundup
Issued by NWS

Home | Current Version | Previous Version | Text Only | Print | Product List | Glossary On
Versions: 1 2 3 4 5 6 7 8 9 10 11 12 13 14 15 16 17 18 19 20 21 22 23 24 25 26 27 28 29 30 31 32 33 34 35 36 37 38 39 40 41 42 43 44 45 46 47 48 49 50
000
ASUS43 KTOP 162308
RWRKS

WEATHER ROUNDUP FOR KANSAS
NATIONAL WEATHER SERVICE GOODLAND KS
600 PM CDT WED AUG 16 2017

NOTE:  "FAIR" INDICATES FEW OR NO CLOUDS BELOW 12,000 FEET WITH NO
SIGNIFICANT WEATHER AND/OR OBSTRUCTIONS TO VISIBILITY.

KSZ001>006-013>018-027>032-041>047-170000-
NORTHWEST KANSAS

CITY           SKY/WX    TMP DP  RH WIND       PRES   REMARKS
GOODLAND       MOSUNNY   78  53  41 NW13      30.01R
HAYS           MOSUNNY   83  62  49 W9        29.89S
HILL CITY      MOSUNNY   82  62  50 NW13      29.91R
RUSSELL        SUNNY     85  60  42 NW13      29.87S
$$

KSZ061>065-074>080-084>089-170000-
SOUTHWEST KANSAS

CITY           SKY/WX    TMP DP  RH WIND       PRES   REMARKS
DODGE CITY     SUNNY     88  57  34 NW12G21   29.93R
ELKHART          N/A     82  55  39 NW7         N/A
GARDEN CITY    SUNNY     85  54  34 NW15G22   29.95S
GREAT BEND     SUNNY     83  63  50 N12       29.89S
LIBERAL        SUNNY     85  58  39 N12       29.97S
PRATT          SUNNY     84  60  44 N13       29.89S
$$

KSZ066>073-081>083-090>101-170000-
SOUTHEAST KANSAS

CITY           SKY/WX    TMP DP  RH WIND       PRES   REMARKS
CHANUTE        TSTM      70  68  93 NW15G23   29.85R VSB 1/2
COFFEYVILLE    MOSUNNY   88  76  67 S13G23    29.79S HX  99
HUTCHINSON     CLOUDY    83  65  54 NW10      29.85S
MEDICINE LODGE   N/A     86  68  54 N16       29.84F
NEWTON         CLOUDY    78  68  71 N12       29.86R
PARSONS        PTSUNNY   86  77  74 S9G17     29.80F HX  97
WICHITA INTL   PTSUNNY   78  71  79 N3        29.84R THUNDER
WICHITA JABRA  CLOUDY    75  73  93 N7        29.83R
WICHITA MCCONL MOSUNNY   76  68  78 N6        29.85R
WINFIELD       CLOUDY    79  69  71 SE7       29.80S THUNDER
$$

KSZ007>012-019>026-033>040-048>060-102>105-170000-
NORTHEAST KANSAS

CITY           SKY/WX    TMP DP  RH WIND       PRES   REMARKS
CONCORDIA      SUNNY     83  64  52 NW10      29.83F
EMPORIA        CLOUDY    79  68  69 NW9       29.81F
LAWRENCE       CLOUDY    78  73  84 W3        29.80R THUNDER
MANHATTAN      SUNNY     82  67  60 VRB7      29.80F
MARYSVILLE     MOSUNNY   82  63  51 W8G18     29.80F
OLATHE IND     HVY RAIN  73  71  93 CALM      29.81S FOG
OLATHE EXE     TSTM      73  72  96 S8        29.80F FOG
SALINA         SUNNY     86  62  44 NW12      29.84S
TOPEKA BILLARD CLOUDY    82  70  66 NW7       29.80S
TOPEKA FORBES  CLOUDY    80  71  74 NW5       29.82R
$$




USA.gov is the U.S. government's official web portal to all federal, state and local government web resources and services.